When you browse on this site, cookies collect data to enhance your experience and personalize the content and advertising you see.
Visit our Privacy Policy to learn more. By continuing to use the site, you agree to this use of cookies and data.
  • In Sweden
  • List of Countries
  • For 7 days
  • Water Temperature
  • Weather Map
  • Weather Widgets
  • user-avatar
    Login

    Hourly Weather Francistown

    Today, 19 August, Monday

    Time Temperature Precipitation Wind Pressure Humidity
    00:00 +12°C° 0 mm 3 mps 681 mmHg 74%
    01:00 +11°C° 0 mm 3 mps 681 mmHg 79%
    02:00 +11°C° 0 mm 3 mps 680 mmHg 85%
    03:00 +10°C° 0 mm 3 mps 680 mmHg 87%
    04:00 +10°C° 0 mm 2 mps 680 mmHg 88%
    05:00 +10°C° 0 mm 2 mps 680 mmHg 90%
    06:00 +12°C° 0 mm 2 mps 680 mmHg 85%
    07:00 +14°C° 0 mm 2 mps 681 mmHg 79%
    08:00 +15°C° 0 mm 2 mps 682 mmHg 73%
    09:00 +19°C° 0 mm 3 mps 682 mmHg 57%
    10:00 +22°C° 0 mm 3 mps 683 mmHg 42%
    11:00 +26°C° 0 mm 4 mps 683 mmHg 27%
    12:00 +27°C° 0 mm 4 mps 682 mmHg 22%
    13:00 +29°C° 0 mm 4 mps 682 mmHg 18%
    14:00 +29°C° 0 mm 5 mps 682 mmHg 15%
    15:00 +29°C° 0 mm 5 mps 681 mmHg 15%
    16:00 +29°C° 0 mm 5 mps 681 mmHg 15%
    17:00 +28°C° 0 mm 5 mps 680 mmHg 15%
    18:00 +25°C° 0 mm 4 mps 680 mmHg 19%
    19:00 +22°C° 0 mm 4 mps 680 mmHg 24%
    20:00 +19°C° 0 mm 4 mps 681 mmHg 28%
    21:00 +18°C° 0 mm 4 mps 681 mmHg 30%
    22:00 +17°C° 0 mm 3 mps 681 mmHg 33%
    23:00 +16°C° 0 mm 3 mps 681 mmHg 35%

    Tomorrow, 20 August, Tuesday

    Time Temperature Precipitation Wind Pressure Humidity
    00:00 +15°C° 0 mm 2 mps 680 mmHg 37%
    01:00 +15°C° 0 mm 2 mps 680 mmHg 39%
    02:00 +14°C° 0 mm 2 mps 680 mmHg 41%
    03:00 +14°C° 0 mm 2 mps 679 mmHg 43%
    04:00 +13°C° 0 mm 1 mps 679 mmHg 45%
    05:00 +13°C° 0 mm 1 mps 679 mmHg 46%
    06:00 +15°C° 0 mm 2 mps 680 mmHg 40%
    07:00 +17°C° 0 mm 2 mps 681 mmHg 34%
    08:00 +19°C° 0 mm 2 mps 683 mmHg 28%
    09:00 +21°C° 0 mm 4 mps 683 mmHg 28%
    10:00 +23°C° 0 mm 5 mps 683 mmHg 27%
    11:00 +26°C° 0 mm 7 mps 684 mmHg 26%
    12:00 +26°C° 0 mm 7 mps 683 mmHg 26%
    13:00 +27°C° 0 mm 7 mps 683 mmHg 27%
    14:00 +28°C° 0 mm 7 mps 683 mmHg 27%
    15:00 +26°C° 0 mm 8 mps 682 mmHg 34%
    16:00 +24°C° 0 mm 8 mps 682 mmHg 40%
    17:00 +22°C° 0 mm 8 mps 682 mmHg 46%
    18:00 +20°C° 0 mm 7 mps 682 mmHg 55%
    19:00 +17°C° 0 mm 6 mps 683 mmHg 64%
    20:00 +15°C° 0 mm 5 mps 683 mmHg 73%
    21:00 +14°C° 0 mm 5 mps 683 mmHg 78%
    22:00 +13°C° 0 mm 5 mps 683 mmHg 83%
    23:00 +12°C° 0 mm 5 mps 683 mmHg 88%

    Day after tomorrow, 21 August, Wednesday

    Time Temperature Precipitation Wind Pressure Humidity
    00:00 +12°C° 0 mm 5 mps 683 mmHg 89%
    01:00 +11°C° 0 mm 6 mps 683 mmHg 91%
    02:00 +11°C° 0 mm 6 mps 683 mmHg 92%
    03:00 +11°C° 0 mm 6 mps 683 mmHg 92%
    04:00 +10°C° 0 mm 6 mps 683 mmHg 92%
    05:00 +10°C° 0 mm 6 mps 683 mmHg 92%
    06:00 +11°C° 0 mm 7 mps 683 mmHg 86%
    07:00 +11°C° 0 mm 7 mps 684 mmHg 80%
    08:00 +12°C° 0 mm 8 mps 685 mmHg 74%
    09:00 +15°C° 0 mm 8 mps 685 mmHg 61%
    10:00 +18°C° 0 mm 8 mps 685 mmHg 49%
    11:00 +21°C° 0 mm 7 mps 686 mmHg 36%
    12:00 +22°C° 0 mm 7 mps 685 mmHg 32%
    13:00 +24°C° 0 mm 7 mps 684 mmHg 27%
    14:00 +26°C° 0 mm 7 mps 684 mmHg 23%
    15:00 +24°C° 0 mm 7 mps 683 mmHg 23%
    16:00 +23°C° 0 mm 7 mps 683 mmHg 22%
    17:00 +23°C° 0 mm 7 mps 683 mmHg 22%
    18:00 +20°C° 0 mm 6 mps 683 mmHg 30%
    19:00 +17°C° 0 mm 6 mps 683 mmHg 38%
    20:00 +14°C° 0 mm 5 mps 683 mmHg 45%
    21:00 +13°C° 0 mm 5 mps 683 mmHg 53%
    22:00 +12°C° 0 mm 4 mps 683 mmHg 61%
    23:00 +11°C° 0 mm 4 mps 683 mmHg 69%

    22 August, Thursday

    Time Temperature Precipitation Wind Pressure Humidity
    00:00 +10°C° 0 mm 4 mps 683 mmHg 75%
    01:00 +9°C° 0 mm 3 mps 683 mmHg 80%
    02:00 +9°C° 0 mm 3 mps 682 mmHg 86%
    03:00 +8°C° 0 mm 3 mps 682 mmHg 87%
    04:00 +8°C° 0 mm 3 mps 682 mmHg 89%
    05:00 +7°C° 0 mm 3 mps 682 mmHg 91%
    06:00 +9°C° 0 mm 3 mps 683 mmHg 85%
    07:00 +10°C° 0 mm 4 mps 683 mmHg 79%
    08:00 +10°C° 0 mm 5 mps 684 mmHg 74%
    09:00 +14°C° 0 mm 5 mps 684 mmHg 60%
    10:00 +17°C° 0 mm 5 mps 684 mmHg 47%
    11:00 +21°C° 0 mm 6 mps 685 mmHg 33%
    12:00 +23°C° 0 mm 6 mps 684 mmHg 30%
    13:00 +24°C° 0 mm 6 mps 683 mmHg 27%
    14:00 +26°C° 0 mm 6 mps 683 mmHg 23%
    15:00 +26°C° 0 mm 6 mps 682 mmHg 24%
    16:00 +24°C° 0 mm 6 mps 682 mmHg 26%
    17:00 +24°C° 0 mm 6 mps 682 mmHg 27%
    18:00 +21°C° 0 mm 5 mps 682 mmHg 33%
    19:00 +18°C° 0 mm 4 mps 681 mmHg 40%
    20:00 +16°C° 0 mm 3 mps 681 mmHg 46%
    21:00 +14°C° 0 mm 3 mps 681 mmHg 47%
    22:00 +13°C° 0 mm 3 mps 681 mmHg 48%
    23:00 +12°C° 0 mm 3 mps 681 mmHg 50%

    23 August, Friday

    Time Temperature Precipitation Wind Pressure Humidity
    00:00 +12°C° 0 mm 2 mps 681 mmHg 52%
    01:00 +12°C° 0 mm 2 mps 681 mmHg 55%
    02:00 +11°C° 0 mm 1 mps 680 mmHg 58%
    03:00 +10°C° 0 mm 1 mps 680 mmHg 60%
    04:00 +10°C° 0 mm 1 mps 680 mmHg 62%
    05:00 +10°C° 0 mm 1 mps 680 mmHg 63%
    06:00 +10°C° 0 mm 2 mps 681 mmHg 58%
    07:00 +13°C° 0 mm 2 mps 682 mmHg 52%
    08:00 +15°C° 0 mm 2 mps 683 mmHg 46%
    09:00 +18°C° 0 mm 3 mps 683 mmHg 39%
    10:00 +21°C° 0 mm 4 mps 683 mmHg 32%
    11:00 +25°C° 0 mm 4 mps 684 mmHg 25%
    12:00 +27°C° 0 mm 5 mps 683 mmHg 22%
    13:00 +28°C° 0 mm 5 mps 683 mmHg 20%
    14:00 +29°C° 0 mm 6 mps 682 mmHg 17%
    15:00 +29°C° 0 mm 6 mps 682 mmHg 17%
    16:00 +28°C° 0 mm 6 mps 682 mmHg 17%
    17:00 +27°C° 0 mm 6 mps 681 mmHg 18%
    18:00 +23°C° 0 mm 5 mps 681 mmHg 23%
    19:00 +20°C° 0 mm 4 mps 681 mmHg 28%
    20:00 +17°C° 0 mm 3 mps 681 mmHg 33%
    21:00 +16°C° 0 mm 3 mps 681 mmHg 35%
    22:00 +14°C° 0 mm 3 mps 681 mmHg 37%
    23:00 +13°C° 0 mm 3 mps 681 mmHg 38%

    24 August, Saturday

    Time Temperature Precipitation Wind Pressure Humidity
    00:00 +12°C° 0 mm 3 mps 681 mmHg 40%
    01:00 +12°C° 0 mm 2 mps 681 mmHg 41%
    02:00 +10°C° 0 mm 2 mps 680 mmHg 43%
    03:00 +10°C° 0 mm 2 mps 680 mmHg 46%
    04:00 +9°C° 0 mm 2 mps 680 mmHg 49%
    05:00 +8°C° 0 mm 2 mps 680 mmHg 52%
    06:00 +10°C° 0 mm 2 mps 681 mmHg 48%
    07:00 +12°C° 0 mm 3 mps 682 mmHg 45%
    08:00 +14°C° 0 mm 3 mps 683 mmHg 42%
    09:00 +18°C° 0 mm 4 mps 683 mmHg 34%
    10:00 +21°C° 0 mm 5 mps 684 mmHg 27%
    11:00 +24°C° 0 mm 6 mps 684 mmHg 20%
    12:00 +26°C° 0 mm 6 mps 684 mmHg 17%
    13:00 +28°C° 0 mm 6 mps 683 mmHg 15%
    14:00 +29°C° 0 mm 6 mps 682 mmHg 13%
    15:00 +29°C° 0 mm 6 mps 682 mmHg 13%
    16:00 +28°C° 0 mm 6 mps 682 mmHg 13%
    17:00 +28°C° 0 mm 6 mps 681 mmHg 14%
    18:00 +23°C° 0 mm 5 mps 681 mmHg 18%
    19:00 +20°C° 0 mm 4 mps 681 mmHg 23%
    20:00 +17°C° 0 mm 4 mps 681 mmHg 28%
    21:00 +16°C° 0 mm 3 mps 681 mmHg 32%
    22:00 +14°C° 0 mm 3 mps 681 mmHg 37%
    23:00 +13°C° 0 mm 3 mps 681 mmHg 41%
    Show more